Lakehurst NAS, NJ

7:21 AM EDT on April 27, 2017 (GMT -0400)
Lakehurst Naes

Weather History for KNEL - January, 2013

Change the Weather History Date:

Friday, January 4, 2013

  Actual Average Record
Temperature  
Mean Temperature 31 °F -  
Max Temperature 30 °F 39 °F 30 °F (2017)
Min Temperature 25 °F 30 °F 35 °F (2017)
Degree Days  
Heating Degree Days 34    
Moisture  
Dew Point 20 °F    
Average Humidity 62    
Maximum Humidity 78    
Minimum Humidity 50    
Precipitation  
Precipitation 0.00 in - - ()
Sea Level Pressure  
Sea Level Pressure 30.06 in    
Wind  
Wind Speed 9 mph (West)    
Max Wind Speed 20 mph    
Max Gust Speed 29 mph    
Averages and records for this station are not official NWS values.
T = Trace of Precipitation, MM = Missing Value Source: NWS Daily Summary

Daily Weather History Graph

Daily Weather History Graph

Search for Another Location

Airport or City:

Trip Planner

Search our weather history database for the weather conditions in past years. The results will help you decide how hot, cold, wet, or windy it might be!

Date:

Astronomy

Jan. 04, 2013 Rise Set
Actual Time 7:19 AM EST 4:45 PM EST
Civil Twilight 6:49 AM EST 5:15 PM EST
Nautical Twilight 6:15 AM EST 5:49 PM EST
Astronomical Twilight 5:42 AM EST 6:22 PM EST
Moon No Moon Rise 11:01 AM EST (1/4)
Length of Visible Light 10h 26m
Length of Day
9h 26m
Waning Gibbous, 55% of the Moon is Illuminated
Jan 4
Waning Gibbous
Jan 4
Last Quarter
Jan 11
New
Jan 18
First Quarter
Jan 26
Full

Hourly Weather History & Observations

Time (EST) Temp. Windchill Dew Point Humidity Pressure Visibility Wind Dir Wind Speed Gust Speed Precip Events Conditions
12:00 AM 26.1 °F 19.4 °F 19.0 °F 75% 30.11 in - WSW 5.8 mph - N/A   Mostly Cloudy
1:00 AM 28.0 °F 20.8 °F 19.9 °F 72% 30.10 in - West 6.9 mph - N/A   Overcast
2:00 AM 26.1 °F 19.4 °F 19.0 °F 75% 30.10 in - West 5.8 mph - N/A   Clear
3:00 AM 27.0 °F 19.5 °F 19.9 °F 75% 30.11 in - WSW 6.9 mph - N/A   Clear
4:00 AM 25.0 °F 16.3 °F 19.0 °F 78% 30.10 in - West 8.1 mph - N/A   Clear
5:00 AM 28.9 °F 20.4 °F 19.9 °F 69% 30.11 in - West 9.2 mph - N/A   Overcast
6:00 AM 30.0 °F 23.2 °F 19.9 °F 66% 30.12 in - West 6.9 mph - N/A   Overcast
7:00 AM 30.0 °F 23.2 °F 19.9 °F 66% 30.11 in - SW 6.9 mph - N/A   Scattered Clouds
8:00 AM 30.0 °F 22.4 °F 19.9 °F 66% 30.12 in - SW 8.1 mph - N/A   Clear
9:00 AM 33.1 °F 26.1 °F 21.0 °F 61% 30.12 in - WSW 8.1 mph - N/A   Overcast
11:00 AM 36.0 °F 26.0 °F 19.9 °F 52% 30.09 in - West 17.3 mph - N/A   Overcast
12:00 PM 36.0 °F 25.3 °F 19.9 °F 52% 30.06 in - West 19.6 mph - N/A   Overcast
1:00 PM 36.0 °F 26.3 °F 19.9 °F 52% 30.04 in - West 16.1 mph 28.8 mph N/A   Overcast
2:00 PM 37.0 °F 27.4 °F 19.9 °F 50% 30.01 in - WNW 17.3 mph 27.6 mph N/A   Clear
3:00 PM 37.0 °F 27.0 °F 19.9 °F 50% 30.00 in - West 18.4 mph 24.2 mph N/A   Clear
4:00 PM 37.0 °F 28.5 °F 19.9 °F 50% 30.00 in - West 13.8 mph - N/A   Clear
5:00 PM 34.0 °F 26.6 °F 19.9 °F 56% 29.99 in - West 9.2 mph - N/A   Clear
6:00 PM 34.0 °F 24.6 °F 21.0 °F 59% 29.99 in - West 13.8 mph - N/A   Clear
7:00 PM 34.0 °F 26.0 °F 21.0 °F 59% 30.02 in - West 10.4 mph - N/A   Clear
8:00 PM 34.0 °F 25.5 °F 21.0 °F 59% 30.02 in - West 11.5 mph - N/A   Clear
9:00 PM 33.1 °F 25.5 °F 21.0 °F 61% 30.02 in - West 9.2 mph - N/A   Clear
10:00 PM 32.0 °F 24.2 °F 21.0 °F 64% 30.04 in - West 9.2 mph - N/A   Clear
11:00 PM 30.9 °F 23.5 °F 21.0 °F 67% 30.05 in - West 8.1 mph - N/A   Clear